Torna al catalogo

FREGAT DEB

AttivoUNKNOWN
NORAD 46252·DEBRIS·🇷🇺 Russia

Lanciato Jul 18, 2011 da Baikonur Cosmodrome

Loading…

Prossimi Passaggi (prossime 24 ore)

TLE

AggiornatoSource: Space-Track

Epoca: Sep 12, 2026, 08:51 UTC

1 46252U 11037KN  26255.36905172  .00016713  00000-0  80345-1 0  9993
2 46252  50.7517 275.4437 1693650 293.7790  49.4658 10.56375712222891

Traccia FREGAT DEB in tempo reale con AllMySat

Download on the App Store